This demonstration page uses our WeatherBlox Daily Observations layout. Learn more.

Left ArrowRight Arrow

39.29038, -76.61219

Hourly Observations for August 6, 2015

Temp ( °F °C ) Dew Point ( °F °C ) Humidity (%) Winds ( mph kmh ) Pressure ( in mb ) Visibility ( mi km ) Precip ( " mm )
12:54 am 00:54 undefined 77 25 55 12.8 47 47 undefined N/A 29.98 1015 N/A 0.00 0.00
1:54 am 01:54 undefined 77 25 54 12.2 45 45 undefined N/A 29.98 1015 N/A 0.00 0.00
2:54 am 02:54 undefined 77 25 55 12.8 47 47 undefined N/A 29.97 1015 N/A 0.00 0.00
3:54 am 03:54 undefined 75 23.9 55 12.8 50 50 undefined N/A 29.97 1015 N/A 0.00 0.00
4:54 am 04:54 undefined 74 23.3 55 12.8 52 52 undefined N/A 29.97 1015 N/A 0.00 0.00
5:54 am 05:54 Mostly Cloudy 73 22.8 56 13.3 55 55 undefined N/A 29.97 1015 N/A 0.00 0.00
6:54 am 06:54 undefined 73 22.8 56 13.3 55 55 undefined N/A 29.98 1015 N/A 0.00 0.00
7:54 am 07:54 Mostly Sunny 73 22.8 56 13.3 55 55 undefined N/A 30.00 1016 N/A 0.00 0.00
8:54 am 08:54 undefined 74 23.3 57 13.9 56 56 undefined N/A 29.99 1016 N/A 0.00 0.00
9:54 am 09:54 Mostly Sunny 76 24.4 58 14.4 54 54 undefined N/A 29.99 1016 N/A 0.00 0.00
10:54 am 10:54 Cloudy 77 25 59 15 54 54 undefined N/A 29.99 1016 N/A 0.00 0.00
11:54 am 11:54 undefined 79 26.1 58 14.4 49 49 undefined N/A 29.97 1015 N/A 0.00 0.00
12:54 pm 12:54 undefined 81 27.2 58 14.4 45 45 undefined N/A 29.96 1015 N/A 0.00 0.00
1:54 pm 13:54 Mostly Sunny 81 27.2 59 15 47 47 undefined N/A 29.95 1014 N/A 0.00 0.00
2:54 pm 14:54 undefined 81 27.2 59 15 47 47 undefined N/A 29.93 1014 N/A 0.00 0.00
3:54 pm 15:54 Mostly Sunny 67 19.4 34 1.1 30 30 undefined N/A 30.06 1018 N/A 0.00 0.00
4:54 pm 16:54 undefined 80 26.7 59 15 49 49 undefined N/A 29.92 1013 N/A 0.00 0.00
5:54 pm 17:54 Sunny 72 22 35 1.7 26 26 undefined N/A 30.02 1017 N/A 0.00 0.00
6:54 pm 18:54 Partly Cloudy 78 25.6 61 16.1 56 56 undefined N/A 29.89 1012 N/A 0.00 0.00
7:54 pm 19:54 undefined 77 25 60 15.6 56 56 undefined N/A 29.90 1012 N/A 0.00 0.00
8:54 pm 20:54 undefined 78 25.6 60 15.6 54 54 undefined N/A 29.88 1012 N/A 0.00 0.00
9:54 pm 21:54 undefined 76 24.4 61 16.1 60 60 undefined N/A 29.92 1013 N/A 0.00 0.00
10:54 pm 22:54 Cloudy 75 23.9 62 16.7 64 64 undefined N/A 29.91 1013 N/A 0.00 0.00
11:54 pm 23:54 undefined 70 21.1 60 15.6 71 71 undefined N/A 29.91 1013 N/A 0.00 0.00

Powered by AerisWeather